IZ2MHJ-3 Weather Reports


time (UTC)temp
C
wind
direction
speed
KPH
gust
KPH
rain 1hr
cm
rain 24hr
cm
rain mn
cm
humidity
%
barometer
mb
20260506124440 18 0.0 0.0 0.00 0.00 0.00 77 1010.3
20260506122441 17 0.0 0.0 0.00 0.00 0.00 78 1010.6
20260506120440 16 0.0 0.0 0.00 0.00 0.00 82 1010.9
20260506114440 16 0.0 0.0 0.00 0.00 0.00 82 1010.9
20260506112439 15 0.0 0.0 0.00 0.00 0.00 84 1010.9
20260506110439 15 0.0 0.0 0.00 0.00 0.00 87 1011.1
20260506104439 15 0.0 0.0 0.00 0.00 0.00 88 1010.4
20260506102438 14 0.0 0.0 0.00 0.00 0.00 90 1011.3
20260506100440 13 0.0 0.0 0.00 0.00 0.00 94 1011.5
20260506094438 13 0.0 0.0 0.00 0.00 0.00 94 1011.3
20260506092438 13 0.0 0.0 0.00 0.00 0.00 95 1011.1
20260506090437 13 0.0 0.0 0.00 0.00 0.00 90 1011.4
20260506084437 13 0.0 0.0 0.00 0.00 0.00 91 1011.1
20260506082437 13 0.0 0.0 0.00 0.00 0.00 94 1011.1
20260506080437 13 0.0 0.0 0.00 0.00 0.00 96 1011.2
20260506072436 13 0.0 0.0 0.00 0.00 0.00 96 1011.3
20260506070435 13 0.0 0.0 0.00 0.00 0.00 99 1011.6
20260506062435 12 0.0 0.0 0.00 0.00 0.00 99 1012.1
20260506060434 13 0.0 0.0 0.00 0.00 0.00 99 1011.9
20260506050434 13 0.0 0.0 0.00 0.00 0.00 99 1012.1
20260506044434 12 0.0 0.0 0.00 0.00 0.00 99 1011.6
20260506042433 12 0.0 0.0 0.00 0.00 0.00 99 1012.4
20260506040433 13 0.0 0.0 0.00 0.00 0.00 99 1012.2
20260506034432 12 0.0 0.0 0.00 0.00 0.00 99 1012.1
20260506032432 12 0.0 0.0 0.00 0.00 0.00 99 1012.3
20260506030431 12 0.0 0.0 0.00 0.00 0.00 99 1012.2
20260506024431 12 0.0 0.0 0.00 0.00 0.00 99 1012.9
20260506022431 12 0.0 0.0 0.00 0.00 0.00 99 1013.1
20260506020430 12 0.0 0.0 0.00 0.00 0.00 99 1013.1
20260506014430 13 0.0 0.0 0.00 0.00 0.00 99 1013.2
20260506012430 13 0.0 0.0 0.00 0.00 0.00 99 1013.3
20260506010430 13 0.0 0.0 0.00 0.00 0.00 98 1013.4
20260506004430 13 0.0 0.0 0.00 0.00 0.00 98 1013.5
20260506002429 13 0.0 0.0 0.00 0.00 0.00 98 1013.7
20260506000431 13 0.0 0.0 0.00 0.00 0.00 98 1014.1
20260505234428 13 0.0 0.0 0.00 0.00 0.00 98 1014.0
20260505232428 13 0.0 0.0 0.00 0.00 0.00 96 1014.1
20260505230428 13 0.0 0.0 0.00 0.00 0.00 97 1014.1
20260505224427 13 0.0 0.0 0.00 0.00 0.00 97 1014.4
20260505222427 13 0.0 0.0 0.00 0.00 0.00 98 1014.3
20260505220427 13 0.0 0.0 0.00 0.00 0.00 98 1014.5
20260505214426 13 0.0 0.0 0.00 0.00 0.00 98 1014.6
20260505212426 13 0.0 0.0 0.00 0.00 0.00 98 1014.9
20260505210426 13 0.0 0.0 0.00 0.00 0.00 98 1015.2
20260505204425 13 0.0 0.0 0.00 0.00 0.00 94 1015.1
20260505202425 13 0.0 0.0 0.00 0.00 0.00 93 1015.0
20260505200425 13 0.0 0.0 0.00 0.00 0.00 92 1015.1
20260505194425 14 0.0 0.0 0.00 0.00 0.00 93 1015.0
20260505192424 14 0.0 0.0 0.00 0.00 0.00 93 1015.0
20260505190424 13 0.0 0.0 0.00 0.00 0.00 92 1014.7
20260505184424 13 0.0 0.0 0.00 0.00 0.00 93 1014.8
20260505182423 14 0.0 0.0 0.00 0.00 0.00 92 1014.7
20260505180423 14 0.0 0.0 0.00 0.00 0.00 90 1014.7
20260505174423 14 0.0 0.0 0.00 0.00 0.00 87 1014.7
20260505172423 14 0.0 0.0 0.00 0.00 0.00 88 1014.6
20260505170422 14 0.0 0.0 0.00 0.00 0.00 88 1014.6
20260505164422 14 0.0 0.0 0.00 0.00 0.00 88 1014.7
20260505162421 14 0.0 0.0 0.00 0.00 0.00 88 1014.8
20260505160421 14 0.0 0.0 0.00 0.00 0.00 89 1014.9
20260505152421 14 0.0 0.0 0.00 0.00 0.00 91 1015.1
20260505150530 14 0.0 0.0 0.00 0.00 0.00 92 1015.1
20260505140529 13 0.0 0.0 0.00 0.00 0.00 94 1015.3